Location: Limoges
(45.8500°N, 1.2500°E)
Time: 02:23:21
(UTC+02:00)

ISS - Pass Details

Date: 26 September 2021
Orbit: 417 x 423 km, 51.6° (Epoch: 21 October)

Event Time Altitude Azimuth Distance (km) Brightness Sun altitude
Rises 20:55:22 0° 287° (WNW) 2,364 2.1 -13.1°
Reaches altitude 10° 20:57:38 10° 299° (WNW) 1,501 0.3 -13.5°
Maximum altitude 21:00:38 29° 2° (N) 803 -2.2 -14.0°
Enters shadow 21:02:33 17° 52° (NE) 1,140 -1.9 -14.3°
